Regional Weather Roundup
Issued by NWS

Home | Current Version | Previous Version | Graphics & Text | Print | Product List | Glossary On
Versions: 1 2 3 4 5 6 7 8 9 10 11 12 13 14 15 16 17 18 19 20 21 22 23 24 25 26 27 28 29 30 31 32 33 34 35 36 37 38 39 40 41 42 43 44 45 46 47 48 49 50
000
ASUS45 KBOU 230607
RWRCO

WEATHER ROUNDUP FOR COLORADO
NATIONAL WEATHER SERVICE DENVER/BOULDER CO
1200 AM MDT MON MAY 23 2016

NOTE: "FAIR" INDICATES FEW OR NO CLOUDS BELOW 12000 FEET WITH NO
SIGNIFICANT WEATHER AND/OR OBSTRUCTIONS TO VISIBILITY.

COZ001>005-013-030-031-230700-
...NORTHWEST COLORADO...

CITY           SKY/WX    TMP DP  RH WIND       PRES   REMARKS
CRAIG          FAIR      36  31  82 W5        30.04S
HAYDEN         FAIR      37  28  70 SW5       30.03F
MEEKER         FAIR      41  32  70 CALM      30.01F
MOUNT WERNER   NOT AVBL
STEAMBOAT SPGS FAIR      36  32  87 CALM      30.03S
WALDEN         FAIR      32  28  86 SE6       30.05F WCI  26
$$

COZ006>008-011-230700-
...WEST CENTRAL VALLEYS...

CITY           SKY/WX    TMP DP  RH WIND       PRES   REMARKS
GRAND JUNCTION FAIR      46  21  37 N6        29.91F
MONTROSE       FAIR      51  25  36 S7        29.97F
EAGLE          FAIR      45  27  49 E5        30.01S
RIFLE          FAIR      52  24  33 N5        29.96F
DELTA          FAIR      52  25  34 NE3       29.93S
NUCLA          FAIR      48  27  43 E9        30.00S
$$

COZ017>023-064>068-230700-
...SOUTHWEST COLORADO...

CITY           SKY/WX    TMP DP  RH WIND       PRES   REMARKS
DURANGO        FAIR      39  26  59 E6        29.98F
CORTEZ         FAIR      44  27  51 E3        29.96F
PAGOSA SPRINGS FAIR      42  29  58 CALM      30.04S
TELLURIDE      FAIR      43  25  49 SE3       30.11F
WOLF CREEK PAS FAIR      32  16  51 SW28G33   30.21F WCI  18
$$

COZ009-010-012-014-032>034-037-058>063-230700-
...CENTRAL COLORADO...

CITY           SKY/WX    TMP DP  RH WIND       PRES   REMARKS
ASPEN          FAIR      39  27  62 SW7       30.03F
BUENA VISTA    FAIR      47  24  39 NW16      30.01S
COPPER MTN     NOT AVBL
BERTHOUD PASS  FAIR      27  16  63 NW10G22   30.17S WCI  17
COTTONWOOD PAS FAIR      45  18  33 CALM      30.08F
GUNNISON       FAIR      43  25  49 N3        30.04F
KREMMLING      FAIR      41  28  60 CALM      30.04S
LEADVILLE        N/A     35  20  54 N6        30.09F WCI  30
MONARCH PASS   FAIR      32  19  59 W30       30.26F WCI  18
SALIDA         FAIR      55  20  25 W8        30.05F
SUNLIGHT       FAIR      32  21  64 CALM      30.15F
WILKERSON PASS FAIR      36  19  51 W6        30.19R
$$

COZ069>075-230700-
...SAN LUIS VALLEY/SANGRE DE CRISTO MOUNTAINS...

CITY           SKY/WX    TMP DP  RH WIND       PRES   REMARKS
ALAMOSA        FAIR      47  25  42 W8        29.99F
LA VETA PASS   FAIR      43  21  42 S8        30.11R
SAGUACHE       FAIR      46  25  42 NW9       30.01S
$$

COZ035-036-038>040-230700-
...NORTHERN COLORADO FRONT RANGE...

CITY           SKY/WX    TMP DP  RH WIND       PRES   REMARKS
DENVER INTL AP FAIR      50  42  74 SE13      29.88R
DMNS CITY PARK   N/A     55  41  60 E10G16    29.90R
AURORA         MOCLDY    50  44  79 SE15      29.90R
FRONT RANGE AP NOT AVBL
ERIE MUNI ARPT FAIR      55  43  64 S10       29.87R
BOULDER MUN AP FAIR      59  36  41 SE8       29.86R
CENTENNIAL     FAIR      52  41  66 SE10      29.91R
BROOMFIELD     FAIR      54  43  66 S5        29.90R
FORT COLLINS   FAIR      55  34  44 N6        29.85R
LONGMONT       FAIR      54  42  64 NE6       29.87R
$$

COZ041-046-047-076>085-087-088-230700-
...PIKES PEAK/PALMER DIVIDE AND SOUTHERN FOOTHILLS...

CITY           SKY/WX    TMP DP  RH WIND       PRES   REMARKS
COLO. SPRINGS  FAIR      54  40  59 NE20G30   29.92R
A. F. ACADEMY  FAIR      52  43  71 N8        29.93R
SCHRIEVER AFB  NOT AVBL
ELLICOTT       FAIR     N/A N/A N/A NE26      29.90R
FALCON         FAIR      48  40  74 N10       29.97R
FORT CARSON    FAIR      59  45  58 NE13      29.90R
LIMON          FAIR      48  43  82 N16G28    29.90R
MONUMENT HILL  FAIR      41  39  93 E8        29.99R
TRINIDAD       FAIR      56  29  35 W12       29.87S
$$

COZ042>045-048>051-090-091-230700-
...NORTHEAST COLORADO...

CITY           SKY/WX    TMP DP  RH WIND       PRES   REMARKS
GREELEY ARPT   FAIR      57  32  38 N20       29.84R
AKRON          FAIR      48  38  68 N10       29.90R
BURLINGTON     MOCLDY    63  52  67 S24G31    29.81R
WRAY           CLOUDY    59  43  55 N18       29.87R
STERLING       CLOUDY    55  37  50 NE8       29.87R
HOLYOKE        CLOUDY    59  43  55 NE8       29.89R
FORT MORGAN    MOCLDY    52  37  55 E9        29.88R
$$

COZ086-089-092>099-230700-
...SOUTHEAST COLORADO...

CITY           SKY/WX    TMP DP  RH WIND       PRES   REMARKS
PUEBLO         FAIR      63  32  31 NW10      29.81R
LA JUNTA       FAIR      64  34  32 S8        29.78R
LAMAR          FAIR      65  56  72 S35G45    29.75R
SPRINGFIELD      N/A     57  54  89 S23       29.85R
$$



USA.gov is the U.S. government's official web portal to all federal, state and local government web resources and services.